Flag for Taiwan Weather past 2 weeks in Taipei, Taiwan

Now
79 °F

Passing clouds.


Feels Like: 81 °F
Forecast: 82 / 92 °F
Wind: 8 mph from East

Location: Sungshan / Taipei

Current Time: Aug 2, 2015 at 1:15:52 AM

Latest Report: Aug 2, 2015 at 12:00 AM


Visibility: N/A

Pressure: 29.86 "Hg

Humidity: 74%

Dew point: 70 °F

Location of TaipeiLocation

Historic Weather in Taipei — Graph

°F

Taipei temperature yesterday

Maximum temperature yesterday: 93 °F (at 12:00 PM)
Minimum temperature yesterday: 79 °F (at 4:00 AM)
Average temperature yesterday: 86 °F

Past Weeks' High & Low Weather Summary

 TemperatureHumidityPressure
High97 °F (Jul 21, 12:30 PM)100% (Jul 23, 2:30 PM)29.92 "Hg (Jul 23, 2:30 PM)
Low77 °F (Jul 23, 1:30 PM)34% (Jul 28, 12:30 PM)29.56 "Hg (Jul 18, 3:00 PM)
Average85 °F66%29.80 "Hg
* Reported Midnight between Jul 17 and Jul 18 — Midnight between Aug 1 and Aug 2, Taipei, Weather by CustomWeather, © 2015

Note: Actual official high and low records may vary slightly from our data, if they occured in-between our weather recording intervals... More about our weather records

Advertising

Taipei weather history for previous 24 hours

 ConditionsComfort  
Time TempWeatherWind HumidityBarometerVisibility
12:00 AM
Sun, Aug 2
79 °FPassing clouds.8 mph74%29.86 "HgN/A
11:30 PM
Sat, Aug 1
81 °FPassing clouds.8 mph70%29.86 "HgN/A
11:00 PM81 °FPassing clouds.8 mph70%29.86 "HgN/A
10:30 PM81 °FPassing clouds.9 mph70%29.86 "HgN/A
10:00 PM82 °FPassing clouds.9 mph66%29.89 "HgN/A
9:30 PM82 °FPassing clouds.10 mph66%29.86 "HgN/A
9:00 PM82 °FPassing clouds.12 mph66%29.86 "HgN/A
8:30 PM84 °FPassing clouds.12 mph62%29.86 "HgN/A
8:00 PM84 °FPassing clouds.9 mph66%29.86 "HgN/A
7:30 PM84 °FPassing clouds.10 mph66%29.86 "HgN/A
7:00 PM86 °FPassing clouds.9 mph62%29.83 "HgN/A
6:30 PM86 °FScattered clouds.9 mph62%29.83 "HgN/A
6:00 PM88 °FScattered clouds.8 mph59%29.83 "HgN/A
5:30 PM88 °FScattered clouds.9 mph59%29.83 "HgN/A
5:00 PM88 °FBroken clouds.10 mph59%29.83 "HgN/A
4:30 PM88 °FScattered clouds.13 mph59%29.83 "HgN/A
4:00 PM90 °FScattered clouds.12 mph59%29.83 "HgN/A
3:30 PM91 °FScattered clouds.7 mph56%29.83 "HgN/A
3:00 PM91 °FScattered clouds.9 mph46%29.83 "HgN/A
2:30 PM93 °FScattered clouds.9 mph47%29.86 "HgN/A
2:00 PM93 °FScattered clouds.9 mph47%29.86 "HgN/A
1:30 PM93 °FScattered clouds.9 mph49%29.86 "HgN/A
1:00 PM93 °FScattered clouds.8 mph49%29.86 "HgN/A
12:30 PM93 °FScattered clouds.9 mph53%29.86 "HgN/A
12:00 PM93 °FScattered clouds.8 mph49%29.89 "HgN/A
11:00 AM91 °FScattered clouds.3 mph56%29.89 "HgN/A
10:30 AM90 °FScattered clouds.3 mph63%29.89 "HgN/A
10:00 AM90 °FScattered clouds.3 mph55%29.89 "HgN/A
9:30 AM88 °FPassing clouds.5 mph59%29.89 "HgN/A
9:00 AM88 °FPassing clouds.5 mph59%29.89 "HgN/A
8:30 AM86 °FPassing clouds.7 mph62%29.89 "HgN/A
8:00 AM84 °FPassing clouds.3 mph66%29.89 "HgN/A
7:30 AM84 °FPassing clouds.2 mph62%29.89 "HgN/A
7:00 AM82 °FPassing clouds.3 mph66%29.89 "HgN/A
6:30 AM81 °FPassing clouds.3 mph70%29.89 "HgN/A
6:00 AM81 °FPassing clouds.1 mph70%29.89 "HgN/A
5:00 AM79 °FPassing clouds.2 mph74%29.86 "HgN/A
4:00 AM79 °FPassing clouds.2 mph74%29.86 "HgN/A
3:00 AM81 °FPassing clouds.2 mph70%29.86 "HgN/A
2:00 AM81 °FPassing clouds.5 mph70%29.86 "HgN/A
1:00 AM82 °FPassing clouds.3 mph66%29.86 "HgN/A
Weather by CustomWeather, © 2015

See weather overviewHow to use our weather pages